Weather History for Mosby, MO

Change the Weather History Date:

Thursday, January 10, 2013

  Actual Average (KMKC) Record (KMKC)
Temperature  
Mean Temperature 38 °F -  
Max Temperature 46 °F 36 °F 57 °F (2000)
Min Temperature 30 °F 21 °F 0 °F (1997)
Degree Days  
Heating Degree Days 27    
Moisture  
Dew Point 38 °F    
Average Humidity 89    
Maximum Humidity 100    
Minimum Humidity 53    
Precipitation  
Precipitation 0.00 in - - ()
Sea Level Pressure  
Sea Level Pressure 30.00 in    
Wind  
Wind Speed 6 mph (ESE)    
Max Wind Speed 14 mph    
Max Gust Speed 20 mph    
Visibility 4 miles    
Events Fog , Rain    
Averages and records for this station are not official NWS values.
T = Trace of Precipitation, MM = Missing Value Source: NWS Daily Summary

Daily Weather History Graph

Daily Weather History Graph

Search for Another Location

Airport:

Trip Planner

Search our weather history database for the weather conditions in past years. The results will help you decide how hot, cold, wet, or windy it might be!

Date:

Astronomy

Jan. 10, 2013 Rise Set
Actual Time 7:36 AM CST 5:13 PM CST
Civil Twilight 7:07 AM CST 5:43 PM CST
Nautical Twilight 6:33 AM CST 6:16 PM CST
Astronomical Twilight 6:01 AM CST 6:48 PM CST
Moon 6:17 AM CST (1/10) 4:21 PM CST (1/10)
Length of Visible Light 10h 35m
Length of Day
9h 36m
Waning Crescent, 2% of the Moon is Illuminated
Jan 10
Waning Crescent
Jan 11
New
Jan 18
First Quarter
Jan 26
Full
Feb 3
Last Quarter

Hourly Weather History & Observations

Time (CST) Temp. Windchill Dew Point Humidity Pressure Visibility Wind Dir Wind Speed Gust Speed Precip Events Conditions
12:15 AM 30.2 °F - 28.4 °F 93% 30.36 in 10.0 mi Calm Calm - N/A   Clear
12:35 AM 35.6 °F 29.9 °F 30.2 °F 81% 30.35 in 10.0 mi East 6.9 mph - N/A   Clear
12:55 AM 39.2 °F 33.0 °F 30.2 °F 70% 30.34 in 10.0 mi East 9.2 mph - N/A   Clear
2:15 AM 41.0 °F 36.4 °F 28.4 °F 61% 30.33 in 10.0 mi East 6.9 mph - N/A   Clear
2:35 AM 41.0 °F 36.4 °F 28.4 °F 61% 30.32 in 10.0 mi East 6.9 mph - N/A   Clear
2:55 AM 41.0 °F 35.8 °F 28.4 °F 61% 30.31 in 10.0 mi East 8.1 mph - N/A   Clear
3:15 AM 41.0 °F 35.2 °F 28.4 °F 61% 30.30 in 10.0 mi East 9.2 mph - N/A   Clear
3:35 AM 41.0 °F 35.8 °F 28.4 °F 61% 30.29 in 10.0 mi ESE 8.1 mph - N/A   Clear
3:55 AM 42.8 °F 38.0 °F 28.4 °F 57% 30.28 in 10.0 mi ESE 8.1 mph - N/A   Light Drizzle
4:15 AM 42.8 °F 37.5 °F 26.6 °F 53% 30.27 in 10.0 mi ESE 9.2 mph - N/A Rain Light Rain
4:35 AM 42.8 °F 38.0 °F 26.6 °F 53% 30.25 in 10.0 mi East 8.1 mph 16.1 mph N/A   Light Drizzle
4:55 AM 42.8 °F 37.5 °F 28.4 °F 57% 30.24 in 10.0 mi East 9.2 mph - N/A   Overcast
5:15 AM 42.8 °F 37.0 °F 28.4 °F 57% 30.23 in 10.0 mi East 10.4 mph - N/A   Overcast
5:35 AM 42.8 °F 37.0 °F 28.4 °F 57% 30.22 in 10.0 mi ESE 10.4 mph 16.1 mph N/A   Overcast
6:15 AM 41.0 °F 34.7 °F 30.2 °F 65% 30.21 in 10.0 mi ESE 10.4 mph - N/A   Overcast
6:35 AM 41.0 °F 34.7 °F 30.2 °F 65% 30.20 in 10.0 mi East 10.4 mph - N/A   Overcast
6:55 AM 41.0 °F 33.5 °F 30.2 °F 65% 30.19 in 10.0 mi East 13.8 mph 18.4 mph N/A   Overcast
7:15 AM 39.2 °F 32.0 °F 32.0 °F 75% 30.19 in 10.0 mi East 11.5 mph 19.6 mph N/A Rain Light Rain
7:35 AM 37.4 °F 30.8 °F 33.8 °F 87% 30.18 in 3.0 mi East 9.2 mph - N/A Rain Light Rain
7:55 AM 37.4 °F 30.8 °F 33.8 °F 87% 30.18 in 2.0 mi ESE 9.2 mph - N/A Rain Light Rain
8:15 AM 37.4 °F 29.3 °F 35.6 °F 93% 30.17 in 2.5 mi East 12.7 mph 18.4 mph N/A Rain Light Rain
8:35 AM 37.4 °F 29.8 °F 35.6 °F 93% 30.17 in 2.5 mi East 11.5 mph - N/A Rain Light Rain
9:15 AM 37.4 °F 28.9 °F 35.6 °F 93% 30.12 in 10.0 mi East 13.8 mph 17.3 mph N/A   Overcast
9:35 AM 37.4 °F 28.9 °F 35.6 °F 93% 30.10 in 10.0 mi East 13.8 mph 18.4 mph N/A   Overcast
9:55 AM 37.4 °F 30.3 °F 35.6 °F 93% 30.10 in 10.0 mi East 10.4 mph - N/A   Overcast
10:15 AM 37.4 °F 30.3 °F 37.4 °F 100% 30.09 in 10.0 mi ESE 10.4 mph 16.1 mph N/A   Overcast
10:35 AM 37.4 °F 30.3 °F 37.4 °F 100% 30.07 in 5.0 mi East 10.4 mph - N/A   Overcast
10:55 AM 37.4 °F 30.8 °F 37.4 °F 100% 30.05 in 2.5 mi East 9.2 mph - N/A   Light Drizzle
11:15 AM 37.4 °F 30.3 °F 37.4 °F 100% 30.02 in 1.8 mi East 10.4 mph - N/A Rain Light Rain
11:35 AM 37.4 °F 31.4 °F 37.4 °F 100% 30.01 in 2.0 mi ESE 8.1 mph - N/A Rain Rain
11:55 AM 39.2 °F 33.6 °F 37.4 °F 93% 29.99 in 3.0 mi East 8.1 mph - N/A   Drizzle
12:15 PM 39.2 °F 34.2 °F 37.4 °F 93% 29.97 in 4.0 mi East 6.9 mph - N/A Rain Rain
12:35 PM 39.2 °F 33.6 °F 39.2 °F 100% 29.95 in 4.0 mi East 8.1 mph - N/A Rain Light Rain
12:55 PM 41.0 °F 36.4 °F 39.2 °F 93% 29.94 in 5.0 mi ESE 6.9 mph - N/A Rain Light Rain
1:15 PM 41.0 °F 36.4 °F 39.2 °F 93% 29.93 in 10.0 mi ESE 6.9 mph - N/A   Overcast
1:35 PM 41.0 °F 36.4 °F 41.0 °F 100% 29.91 in 7.0 mi ESE 6.9 mph - N/A   Overcast
1:55 PM 41.0 °F 37.1 °F 41.0 °F 100% 29.90 in 1.8 mi ESE 5.8 mph - N/A   Overcast
2:15 PM 41.0 °F 36.4 °F 41.0 °F 100% 29.89 in 0.8 mi ESE 6.9 mph - N/A   Overcast
2:35 PM 41.0 °F 39.0 °F 41.0 °F 100% 29.89 in 0.5 mi ESE 3.5 mph - N/A Fog Fog
2:55 PM 41.0 °F 39.0 °F 41.0 °F 100% 29.89 in 0.2 mi ESE 3.5 mph - N/A Fog Fog
3:15 PM 42.8 °F 39.3 °F 41.0 °F 93% 29.87 in 0.8 mi East 5.8 mph - N/A Rain Rain
3:35 PM 42.8 °F 41.1 °F 42.8 °F 100% 29.87 in 0.8 mi ESE 3.5 mph - N/A   Light Drizzle
3:55 PM 42.8 °F 41.1 °F 42.8 °F 100% 29.87 in 0.5 mi ESE 3.5 mph - N/A Rain Rain
4:15 PM 42.8 °F 40.1 °F 42.8 °F 100% 29.86 in 0.2 mi East 4.6 mph - N/A Fog Fog
4:35 PM 42.8 °F - 42.8 °F 100% 29.86 in 0.2 mi Calm Calm - N/A Fog Fog
4:55 PM 42.8 °F - 42.8 °F 100% 29.87 in 0.2 mi Calm Calm - N/A Fog Fog
5:15 PM 42.8 °F - 42.8 °F 100% 29.85 in 0.2 mi Calm Calm - N/A Fog Fog
5:35 PM 42.8 °F 39.3 °F 42.8 °F 100% 29.85 in 0.2 mi East 5.8 mph - N/A Fog Fog
5:55 PM 42.8 °F - 42.8 °F 100% 29.85 in 0.2 mi Calm Calm - N/A Rain Light Rain
6:15 PM 42.8 °F 41.1 °F 42.8 °F 100% 29.84 in 0.5 mi East 3.5 mph - N/A Fog Fog
6:35 PM 42.8 °F - 42.8 °F 100% 29.83 in 1.2 mi Calm Calm - N/A   Drizzle
6:55 PM 42.8 °F - 42.8 °F 100% 29.83 in 1.0 mi Calm Calm - N/A Rain Heavy Rain
7:15 PM 42.8 °F - 42.8 °F 100% 29.83 in 1.2 mi Calm Calm - N/A   Drizzle
7:35 PM 42.8 °F - 42.8 °F 100% 29.82 in 1.0 mi Calm Calm - N/A   Overcast
7:55 PM 42.8 °F 41.1 °F 42.8 °F 100% 29.80 in 1.2 mi East 3.5 mph - N/A   Overcast
8:15 PM 42.8 °F 40.1 °F 42.8 °F 100% 29.78 in 0.2 mi ENE 4.6 mph - N/A Fog Fog
8:35 PM 42.8 °F - 42.8 °F 100% 29.78 in 0.2 mi Calm Calm - N/A Fog Fog
8:55 PM 42.8 °F 41.1 °F 42.8 °F 100% 29.77 in 0.2 mi ESE 3.5 mph - N/A Fog Fog
9:15 PM 44.6 °F 43.1 °F 44.6 °F 100% 29.76 in 0.2 mi SE 3.5 mph - N/A Fog Fog
9:35 PM 44.6 °F 40.2 °F 44.6 °F 100% 29.77 in 0.2 mi SSE 8.1 mph - N/A Fog Fog
9:55 PM 44.6 °F 43.1 °F 44.6 °F 100% 29.76 in 0.2 mi SSE 3.5 mph - N/A Fog Fog
10:15 PM 44.6 °F - 44.6 °F 100% 29.75 in 0.2 mi Calm Calm - N/A Fog Fog
10:35 PM 44.6 °F - 44.6 °F 100% 29.74 in 0.2 mi Calm Calm - N/A Fog Fog
10:55 PM 44.6 °F 43.1 °F 44.6 °F 100% 29.74 in 0.2 mi SE 3.5 mph - N/A Fog Fog
11:15 PM 44.6 °F - 44.6 °F 100% 29.74 in 0.2 mi Calm Calm - N/A Fog Fog
11:35 PM 46.4 °F 44.3 °F 46.4 °F 100% 29.74 in 1.2 mi South 4.6 mph - N/A   Mist
11:55 PM 46.4 °F - 46.4 °F 100% 29.74 in 3.0 mi Calm Calm - N/A   Overcast